Time,TemperatureF,DewpointF,PressureIn,WindDirection,WindDirectionDegrees,WindSpeedMPH,WindSpeedGustMPH,Humidity,HourlyPrecipIn,Conditions,Clouds,dailyrainin,SoftwareType,DateUTC
2013-10-05 00:04:00,73.0,69.6,29.93,South,180,3.0,6.0,89,0.00,,---,0.00,VWS V14.01,2013-10-05 05:04:00,
2013-10-05 00:09:00,74.0,70.6,29.93,South,180,3.0,5.0,89,0.00,,---,0.00,VWS V14.01,2013-10-05 05:09:00,
2013-10-05 00:14:00,73.0,69.6,29.93,SW,225,5.0,5.0,89,0.00,,---,0.00,VWS V14.01,2013-10-05 05:14:00,
2013-10-05 00:19:00,73.0,69.6,29.93,SW,225,5.0,7.0,89,0.00,,---,0.00,VWS V14.01,2013-10-05 05:19:00,
2013-10-05 00:24:00,73.0,69.9,29.93,South,180,7.0,7.0,90,0.00,,---,0.00,VWS V14.01,2013-10-05 05:24:00,
2013-10-05 00:29:00,73.0,69.6,29.93,South,180,3.0,6.0,89,0.00,,---,0.00,VWS V14.01,2013-10-05 05:29:00,
2013-10-05 00:34:00,73.0,69.9,29.93,SW,225,4.0,4.0,90,0.00,,---,0.00,VWS V14.01,2013-10-05 05:34:00,
2013-10-05 00:39:00,73.0,69.9,29.93,South,180,4.0,6.0,90,0.00,,---,0.00,VWS V14.01,2013-10-05 05:39:00,
2013-10-05 00:44:00,73.0,70.2,29.93,South,180,7.0,8.0,91,0.00,,---,0.00,VWS V14.01,2013-10-05 05:44:00,
2013-10-05 00:49:00,73.0,70.2,29.93,SW,225,0.0,3.0,91,0.00,,---,0.00,VWS V14.01,2013-10-05 05:49:00,
2013-10-05 00:54:00,73.0,70.2,29.93,SW,225,3.0,5.0,91,0.00,,---,0.00,VWS V14.01,2013-10-05 05:54:00,
2013-10-05 00:59:00,73.0,70.2,29.93,South,180,3.0,8.0,91,0.00,,---,0.00,VWS V14.01,2013-10-05 05:59:00,
2013-10-05 01:04:00,73.0,70.5,29.93,South,180,1.0,6.0,92,0.00,,---,0.00,VWS V14.01,2013-10-05 06:04:00,
2013-10-05 01:09:00,73.0,70.2,29.94,South,180,1.0,3.0,91,0.00,,---,0.00,VWS V14.01,2013-10-05 06:09:00,
2013-10-05 01:14:00,72.0,69.6,29.94,SW,225,2.0,4.0,92,0.00,,---,0.00,VWS V14.01,2013-10-05 06:14:00,
2013-10-05 01:19:00,73.0,70.5,29.94,SW,225,3.0,6.0,92,0.00,,---,0.00,VWS V14.01,2013-10-05 06:19:00,
2013-10-05 01:24:00,72.0,69.6,29.94,South,180,3.0,7.0,92,0.00,,---,0.00,VWS V14.01,2013-10-05 06:24:00,
2013-10-05 01:29:00,72.0,69.6,29.94,SSW,202,3.0,3.0,92,0.00,,---,0.00,VWS V14.01,2013-10-05 06:29:00,
2013-10-05 01:34:00,72.0,69.9,29.94,SW,225,4.0,7.0,93,0.00,,---,0.00,VWS V14.01,2013-10-05 06:34:00,
2013-10-05 01:39:00,72.0,69.6,29.95,SW,225,3.0,5.0,92,0.00,,---,0.00,VWS V14.01,2013-10-05 06:39:00,
2013-10-05 01:44:00,72.0,69.9,29.95,SSW,202,2.0,2.0,93,0.00,,---,0.00,VWS V14.01,2013-10-05 06:44:00,
2013-10-05 01:49:00,72.0,69.9,29.95,SW,225,5.0,6.0,93,0.00,,---,0.00,VWS V14.01,2013-10-05 06:49:00,
2013-10-05 01:54:00,72.0,70.2,29.95,South,180,0.0,1.0,94,0.00,,---,0.00,VWS V14.01,2013-10-05 06:54:00,
2013-10-05 01:59:00,72.0,69.9,29.95,South,180,0.0,1.0,93,0.00,,---,0.00,VWS V14.01,2013-10-05 06:59:00,
2013-10-05 02:04:00,71.0,69.2,29.95,South,180,3.0,3.0,94,0.00,,---,0.00,VWS V14.01,2013-10-05 07:04:00,
2013-10-05 02:09:00,72.0,70.2,29.95,SW,225,0.0,3.0,94,0.00,,---,0.00,VWS V14.01,2013-10-05 07:09:00,
2013-10-05 02:14:00,71.0,69.2,29.95,South,180,0.0,3.0,94,0.00,,---,0.00,VWS V14.01,2013-10-05 07:14:00,
2013-10-05 02:19:00,71.0,69.2,29.95,South,180,2.0,3.0,94,0.00,,---,0.00,VWS V14.01,2013-10-05 07:19:00,
2013-10-05 02:24:00,71.0,69.5,29.95,SW,225,0.0,1.0,95,0.00,,---,0.00,VWS V14.01,2013-10-05 07:24:00,
2013-10-05 02:29:00,71.0,69.5,29.94,South,180,0.0,4.0,95,0.00,,---,0.00,VWS V14.01,2013-10-05 07:29:00,
2013-10-05 02:34:00,71.0,69.5,29.94,SW,225,0.0,1.0,95,0.00,,---,0.00,VWS V14.01,2013-10-05 07:34:00,
2013-10-05 02:39:00,71.0,69.5,29.94,SW,225,0.0,4.0,95,0.00,,---,0.00,VWS V14.01,2013-10-05 07:39:00,
2013-10-05 02:44:00,71.0,69.8,29.94,SW,225,0.0,0.0,96,0.00,,---,0.00,VWS V14.01,2013-10-05 07:44:00,
2013-10-05 02:49:00,71.0,69.8,29.94,South,180,0.0,2.0,96,0.00,,---,0.00,VWS V14.01,2013-10-05 07:49:00,
2013-10-05 02:54:00,71.0,69.8,29.94,SSW,202,2.0,6.0,96,0.00,,---,0.00,VWS V14.01,2013-10-05 07:54:00,
2013-10-05 02:59:00,71.0,69.8,29.94,South,180,0.0,1.0,96,0.00,,---,0.00,VWS V14.01,2013-10-05 07:59:00,
2013-10-05 03:04:00,71.0,69.8,29.94,SW,225,0.0,3.0,96,0.00,,---,0.00,VWS V14.01,2013-10-05 08:04:00,
2013-10-05 03:09:00,71.0,69.8,29.94,South,180,4.0,4.0,96,0.00,,---,0.00,VWS V14.01,2013-10-05 08:09:00,
2013-10-05 03:14:00,71.0,69.8,29.94,South,180,3.0,5.0,96,0.00,,---,0.00,VWS V14.01,2013-10-05 08:14:00,
2013-10-05 03:19:00,71.0,69.8,29.93,South,180,1.0,2.0,96,0.00,,---,0.00,VWS V14.01,2013-10-05 08:19:00,
2013-10-05 03:24:00,71.0,70.1,29.93,South,180,0.0,3.0,97,0.00,,---,0.00,VWS V14.01,2013-10-05 08:24:00,
2013-10-05 03:29:00,71.0,69.8,29.93,South,180,0.0,1.0,96,0.00,,---,0.00,VWS V14.01,2013-10-05 08:29:00,
2013-10-05 03:34:00,70.0,69.1,29.93,SW,225,0.0,5.0,97,0.00,,---,0.00,VWS V14.01,2013-10-05 08:34:00,
2013-10-05 03:39:00,71.0,69.8,29.93,South,180,3.0,5.0,96,0.00,,---,0.00,VWS V14.01,2013-10-05 08:39:00,
2013-10-05 03:44:00,70.0,69.1,29.93,SW,225,3.0,4.0,97,0.00,,---,0.00,VWS V14.01,2013-10-05 08:44:00,
2013-10-05 03:49:00,71.0,70.1,29.93,South,180,1.0,6.0,97,0.00,,---,0.00,VWS V14.01,2013-10-05 08:49:00,
2013-10-05 03:54:00,70.0,69.1,29.93,South,180,4.0,4.0,97,0.00,,---,0.00,VWS V14.01,2013-10-05 08:54:00,
2013-10-05 03:59:00,71.0,69.8,29.93,South,180,0.0,3.0,96,0.00,,---,0.00,VWS V14.01,2013-10-05 08:59:00,
2013-10-05 04:04:00,70.0,69.1,29.93,South,180,4.0,4.0,97,0.00,,---,0.00,VWS V14.01,2013-10-05 09:04:00,
2013-10-05 04:09:00,71.0,70.1,29.93,South,180,1.0,4.0,97,0.00,,---,0.00,VWS V14.01,2013-10-05 09:09:00,
2013-10-05 04:14:00,70.0,69.1,29.93,South,180,3.0,3.0,97,0.00,,---,0.00,VWS V14.01,2013-10-05 09:14:00,
2013-10-05 04:19:00,71.0,70.1,29.92,SE,135,1.0,8.0,97,0.00,,---,0.00,VWS V14.01,2013-10-05 09:19:00,
2013-10-05 04:24:00,70.0,69.1,29.92,South,180,3.0,5.0,97,0.00,,---,0.00,VWS V14.01,2013-10-05 09:24:00,
2013-10-05 04:29:00,71.0,70.1,29.93,SW,225,4.0,7.0,97,0.00,,---,0.00,VWS V14.01,2013-10-05 09:29:00,
2013-10-05 04:34:00,70.0,69.1,29.93,South,180,5.0,5.0,97,0.00,,---,0.00,VWS V14.01,2013-10-05 09:34:00,
2013-10-05 04:39:00,71.0,70.1,29.92,SSE,157,0.0,3.0,97,0.00,,---,0.00,VWS V14.01,2013-10-05 09:39:00,
2013-10-05 04:44:00,70.0,69.1,29.92,SW,225,1.0,3.0,97,0.00,,---,0.00,VWS V14.01,2013-10-05 09:44:00,
2013-10-05 04:49:00,71.0,70.1,29.92,South,180,0.0,2.0,97,0.00,,---,0.00,VWS V14.01,2013-10-05 09:49:00,
2013-10-05 04:54:00,70.0,69.1,29.92,SW,225,2.0,3.0,97,0.00,,---,0.00,VWS V14.01,2013-10-05 09:54:00,
2013-10-05 04:59:00,71.0,69.8,29.91,South,180,3.0,4.0,96,0.00,,---,0.00,VWS V14.01,2013-10-05 09:59:00,
2013-10-05 05:04:00,70.0,69.1,29.91,South,180,0.0,3.0,97,0.00,,---,0.00,VWS V14.01,2013-10-05 10:04:00,
2013-10-05 05:09:00,71.0,70.1,29.92,WSW,247,1.0,4.0,97,0.00,,---,0.00,VWS V14.01,2013-10-05 10:09:00,
2013-10-05 05:14:00,70.0,69.1,29.92,SW,225,0.0,5.0,97,0.00,,---,0.00,VWS V14.01,2013-10-05 10:14:00,
2013-10-05 05:19:00,70.0,69.1,29.91,SW,225,0.0,3.0,97,0.00,,---,0.00,VWS V14.01,2013-10-05 10:19:00,
2013-10-05 05:24:00,70.0,69.1,29.91,SW,225,3.0,3.0,97,0.00,,---,0.00,VWS V14.01,2013-10-05 10:24:00,
2013-10-05 05:29:00,70.0,69.1,29.92,SW,225,4.0,4.0,97,0.00,,---,0.00,VWS V14.01,2013-10-05 10:29:00,
2013-10-05 05:34:00,70.0,69.1,29.92,SW,225,2.0,3.0,97,0.00,,---,0.00,VWS V14.01,2013-10-05 10:34:00,
2013-10-05 05:39:00,70.0,69.1,29.92,SSW,202,4.0,4.0,97,0.00,,---,0.00,VWS V14.01,2013-10-05 10:39:00,
2013-10-05 05:44:00,70.0,69.1,29.92,SW,225,1.0,3.0,97,0.00,,---,0.00,VWS V14.01,2013-10-05 10:44:00,
2013-10-05 05:49:00,70.0,69.1,29.92,SSE,157,0.0,0.0,97,0.00,,---,0.00,VWS V14.01,2013-10-05 10:49:00,
2013-10-05 05:54:00,70.0,69.1,29.92,South,180,2.0,2.0,97,0.00,,---,0.00,VWS V14.01,2013-10-05 10:54:00,
2013-10-05 05:59:00,70.0,69.1,29.92,South,180,1.0,2.0,97,0.00,,---,0.00,VWS V14.01,2013-10-05 10:59:00,
2013-10-05 06:04:00,70.0,69.1,29.92,SSW,202,0.0,2.0,97,0.00,,---,0.00,VWS V14.01,2013-10-05 11:04:00,
2013-10-05 06:09:00,70.0,69.1,29.92,South,180,4.0,5.0,97,0.00,,---,0.00,VWS V14.01,2013-10-05 11:09:00,
2013-10-05 06:14:00,70.0,69.4,29.92,SW,225,3.0,6.0,98,0.00,,---,0.00,VWS V14.01,2013-10-05 11:14:00,
2013-10-05 06:19:00,70.0,69.1,29.93,SW,225,2.0,3.0,97,0.00,,---,0.00,VWS V14.01,2013-10-05 11:19:00,
2013-10-05 06:24:00,70.0,69.4,29.93,SSW,202,1.0,4.0,98,0.00,,---,0.00,VWS V14.01,2013-10-05 11:24:00,
2013-10-05 06:29:00,70.0,69.4,29.93,South,180,2.0,3.0,98,0.00,,---,0.00,VWS V14.01,2013-10-05 11:29:00,
2013-10-05 06:34:00,70.0,69.4,29.93,SW,225,0.0,2.0,98,0.00,,---,0.00,VWS V14.01,2013-10-05 11:34:00,
2013-10-05 06:39:00,70.0,69.4,29.93,SW,225,0.0,4.0,98,0.00,,---,0.00,VWS V14.01,2013-10-05 11:39:00,
2013-10-05 06:44:00,70.0,69.7,29.93,South,180,6.0,6.0,99,0.00,,---,0.00,VWS V14.01,2013-10-05 11:44:00,
2013-10-05 06:49:00,70.0,69.4,29.92,SSW,202,1.0,3.0,98,0.00,,---,0.00,VWS V14.01,2013-10-05 11:49:00,
2013-10-05 06:54:00,70.0,69.7,29.92,SSW,202,2.0,3.0,99,0.00,,---,0.00,VWS V14.01,2013-10-05 11:54:00,
2013-10-05 06:59:00,70.0,69.7,29.93,South,180,1.0,3.0,99,0.00,,---,0.00,VWS V14.01,2013-10-05 11:59:00,
2013-10-05 07:04:00,70.0,69.7,29.93,SW,225,2.0,5.0,99,0.00,,---,0.00,VWS V14.01,2013-10-05 12:04:00,
2013-10-05 07:09:00,70.0,69.7,29.92,SSW,202,1.0,3.0,99,0.00,,---,0.00,VWS V14.01,2013-10-05 12:09:00,
2013-10-05 07:14:00,70.0,69.7,29.92,SSW,202,1.0,3.0,99,0.00,,---,0.00,VWS V14.01,2013-10-05 12:14:00,
2013-10-05 07:19:00,70.0,69.7,29.92,SSW,202,3.0,5.0,99,0.00,,---,0.00,VWS V14.01,2013-10-05 12:19:00,
2013-10-05 07:24:00,70.0,69.7,29.92,South,180,0.0,1.0,99,0.00,,---,0.00,VWS V14.01,2013-10-05 12:24:00,
2013-10-05 07:29:00,70.0,69.4,29.92,South,180,5.0,6.0,98,0.00,,---,0.00,VWS V14.01,2013-10-05 12:29:00,
2013-10-05 07:34:00,70.0,69.4,29.92,South,180,5.0,6.0,98,0.00,,---,0.00,VWS V14.01,2013-10-05 12:34:00,
2013-10-05 07:39:00,70.0,69.4,29.92,SW,225,1.0,4.0,98,0.00,,---,0.00,VWS V14.01,2013-10-05 12:39:00,
2013-10-05 07:44:00,70.0,69.4,29.92,SW,225,0.0,2.0,98,0.00,,---,0.00,VWS V14.01,2013-10-05 12:44:00,
2013-10-05 07:50:00,71.0,70.1,29.92,SSW,202,3.0,7.0,97,0.00,,---,0.00,VWS V14.01,2013-10-05 12:50:00,
2013-10-05 07:55:00,71.0,70.1,29.92,SSW,202,3.0,4.0,97,0.00,,---,0.00,VWS V14.01,2013-10-05 12:55:00,
2013-10-05 08:00:00,71.0,70.1,29.92,SW,225,5.0,5.0,97,0.00,,---,0.00,VWS V14.01,2013-10-05 13:00:00,
2013-10-05 08:05:00,71.0,70.1,29.92,SW,225,3.0,7.0,97,0.00,,---,0.00,VWS V14.01,2013-10-05 13:05:00,
2013-10-05 08:10:00,71.0,70.1,29.92,SW,225,8.0,8.0,97,0.00,,---,0.00,VWS V14.01,2013-10-05 13:10:00,
2013-10-05 08:15:00,71.0,69.8,29.92,SW,225,4.0,8.0,96,0.00,,---,0.00,VWS V14.01,2013-10-05 13:15:00,
2013-10-05 08:20:00,71.0,69.8,29.92,SW,225,6.0,6.0,96,0.00,,---,0.00,VWS V14.01,2013-10-05 13:20:00,
2013-10-05 08:25:00,71.0,69.8,29.92,South,180,5.0,6.0,96,0.00,,---,0.00,VWS V14.01,2013-10-05 13:25:00,
2013-10-05 08:30:00,71.0,69.8,29.93,SW,225,4.0,7.0,96,0.00,,---,0.00,VWS V14.01,2013-10-05 13:30:00,
2013-10-05 08:35:00,71.0,69.5,29.93,SW,225,6.0,6.0,95,0.00,,---,0.00,VWS V14.01,2013-10-05 13:35:00,
2013-10-05 08:40:00,72.0,70.5,29.93,SW,225,6.0,6.0,95,0.00,,---,0.00,VWS V14.01,2013-10-05 13:40:00,
2013-10-05 08:45:00,72.0,70.2,29.93,SSW,202,6.0,10.0,94,0.00,,---,0.00,VWS V14.01,2013-10-05 13:45:00,
2013-10-05 08:50:00,72.0,70.2,29.93,SW,225,3.0,4.0,94,0.00,,---,0.00,VWS V14.01,2013-10-05 13:50:00,
2013-10-05 08:55:00,72.0,69.9,29.93,SW,225,1.0,5.0,93,0.00,,---,0.00,VWS V14.01,2013-10-05 13:55:00,
2013-10-05 09:00:00,73.0,70.5,29.92,SSW,202,3.0,5.0,92,0.00,,---,0.00,VWS V14.01,2013-10-05 14:00:00,
2013-10-05 09:05:00,73.0,70.2,29.92,SW,225,4.0,6.0,91,0.00,,---,0.00,VWS V14.01,2013-10-05 14:05:00,
2013-10-05 09:10:00,73.0,69.9,29.93,WSW,247,4.0,7.0,90,0.00,,---,0.00,VWS V14.01,2013-10-05 14:10:00,
2013-10-05 09:15:00,73.0,69.6,29.93,WSW,247,5.0,7.0,89,0.00,,---,0.00,VWS V14.01,2013-10-05 14:15:00,
2013-10-05 09:20:00,73.0,69.6,29.92,WNW,292,3.0,6.0,89,0.00,,---,0.00,VWS V14.01,2013-10-05 14:20:00,
2013-10-05 09:25:00,73.0,69.6,29.92,WNW,292,4.0,5.0,89,0.00,,---,0.00,VWS V14.01,2013-10-05 14:25:00,
2013-10-05 09:30:00,73.0,68.9,29.92,WSW,247,5.0,6.0,87,0.00,,---,0.00,VWS V14.01,2013-10-05 14:30:00,
2013-10-05 09:35:00,74.0,69.9,29.92,West,270,5.0,5.0,87,0.00,,---,0.00,VWS V14.01,2013-10-05 14:35:00,
2013-10-05 09:40:00,74.0,69.9,29.93,SW,225,3.0,4.0,87,0.00,,---,0.00,VWS V14.01,2013-10-05 14:40:00,
2013-10-05 09:45:00,74.0,69.6,29.93,WSW,247,4.0,7.0,86,0.00,,---,0.00,VWS V14.01,2013-10-05 14:45:00,
2013-10-05 09:50:00,74.0,69.2,29.93,WSW,247,6.0,6.0,85,0.00,,---,0.00,VWS V14.01,2013-10-05 14:50:00,
2013-10-05 09:55:00,73.0,68.2,29.93,WSW,247,3.0,8.0,85,0.00,,---,0.00,VWS V14.01,2013-10-05 14:55:00,
2013-10-05 10:00:00,74.0,69.2,29.93,WNW,292,0.0,3.0,85,0.00,,---,0.00,VWS V14.01,2013-10-05 15:00:00,
2013-10-05 10:05:00,74.0,68.9,29.93,NW,315,7.0,7.0,84,0.00,,---,0.00,VWS V14.01,2013-10-05 15:05:00,
2013-10-05 10:10:00,74.0,68.5,29.93,SW,225,6.0,6.0,83,0.00,,---,0.00,VWS V14.01,2013-10-05 15:10:00,
2013-10-05 10:15:00,74.0,65.6,29.93,SW,225,3.0,5.0,75,0.00,,---,0.00,VWS V14.01,2013-10-05 15:15:00,
2013-10-05 10:20:00,74.0,63.6,29.94,West,270,2.0,6.0,70,0.00,,---,0.00,VWS V14.01,2013-10-05 15:20:00,
2013-10-05 10:25:00,74.0,63.6,29.94,WNW,292,4.0,7.0,70,0.00,,---,0.00,VWS V14.01,2013-10-05 15:25:00,
2013-10-05 10:30:00,74.0,64.0,29.94,North,360,2.0,6.0,71,0.00,,---,0.00,VWS V14.01,2013-10-05 15:30:00,
2013-10-05 10:35:00,73.0,62.7,29.94,NW,315,3.0,5.0,70,0.00,,---,0.00,VWS V14.01,2013-10-05 15:35:00,
2013-10-05 10:40:00,73.0,63.0,29.95,North,360,1.0,4.0,71,0.00,,---,0.00,VWS V14.01,2013-10-05 15:40:00,
2013-10-05 10:45:00,74.0,64.0,29.95,West,270,3.0,3.0,71,0.00,,---,0.00,VWS V14.01,2013-10-05 15:45:00,
2013-10-05 10:50:00,74.0,64.0,29.94,North,360,2.0,4.0,71,0.00,,---,0.00,VWS V14.01,2013-10-05 15:50:00,
2013-10-05 10:55:00,74.0,64.0,29.94,North,360,0.0,3.0,71,0.00,,---,0.00,VWS V14.01,2013-10-05 15:55:00,
2013-10-05 11:00:00,74.0,63.6,29.95,WNW,292,3.0,3.0,70,0.00,,---,0.00,VWS V14.01,2013-10-05 16:00:00,
2013-10-05 11:05:00,74.0,63.6,29.95,SW,225,4.0,5.0,70,0.00,,---,0.00,VWS V14.01,2013-10-05 16:05:00,
2013-10-05 11:10:00,73.0,63.0,29.95,WSW,247,0.0,0.0,71,0.00,,---,0.00,VWS V14.01,2013-10-05 16:10:00,
2013-10-05 11:15:00,73.0,63.0,29.95,West,270,6.0,9.0,71,0.00,,---,0.00,VWS V14.01,2013-10-05 16:15:00,
2013-10-05 11:20:00,73.0,62.7,29.95,WNW,292,4.0,7.0,70,0.00,,---,0.00,VWS V14.01,2013-10-05 16:20:00,
2013-10-05 11:25:00,73.0,63.0,29.95,West,270,4.0,5.0,71,0.00,,---,0.00,VWS V14.01,2013-10-05 16:25:00,
2013-10-05 11:30:00,73.0,63.0,29.94,WSW,247,4.0,4.0,71,0.00,,---,0.00,VWS V14.01,2013-10-05 16:30:00,
2013-10-05 11:35:00,73.0,63.8,29.94,NW,315,1.0,3.0,73,0.00,,---,0.00,VWS V14.01,2013-10-05 16:35:00,
2013-10-05 11:40:00,73.0,63.5,29.94,SW,225,4.0,4.0,72,0.00,,---,0.00,VWS V14.01,2013-10-05 16:40:00,
2013-10-05 11:45:00,73.0,63.0,29.94,NW,315,4.0,5.0,71,0.00,,---,0.00,VWS V14.01,2013-10-05 16:45:00,
2013-10-05 11:50:00,73.0,63.0,29.93,SW,225,3.0,3.0,71,0.00,,---,0.00,VWS V14.01,2013-10-05 16:50:00,
2013-10-05 11:55:00,73.0,63.0,29.93,West,270,5.0,8.0,71,0.00,,---,0.00,VWS V14.01,2013-10-05 16:55:00,
2013-10-05 12:00:00,73.0,63.0,29.93,WNW,292,3.0,4.0,71,0.00,,---,0.00,VWS V14.01,2013-10-05 17:00:00,
2013-10-05 12:05:00,73.0,63.5,29.93,SW,225,4.0,4.0,72,0.00,,---,0.00,VWS V14.01,2013-10-05 17:05:00,
2013-10-05 12:10:00,73.0,63.5,29.93,SW,225,4.0,5.0,72,0.00,,---,0.00,VWS V14.01,2013-10-05 17:10:00,
2013-10-05 12:15:00,73.0,63.8,29.93,WSW,247,3.0,5.0,73,0.00,,---,0.00,VWS V14.01,2013-10-05 17:15:00,
2013-10-05 12:20:00,73.0,63.8,29.93,SW,225,2.0,3.0,73,0.00,,---,0.00,VWS V14.01,2013-10-05 17:20:00,
2013-10-05 12:25:00,73.0,63.8,29.93,WSW,247,4.0,5.0,73,0.00,,---,0.00,VWS V14.01,2013-10-05 17:25:00,
2013-10-05 12:30:00,72.0,62.9,29.93,WSW,247,4.0,4.0,73,0.00,,---,0.00,VWS V14.01,2013-10-05 17:30:00,
2013-10-05 12:35:00,72.0,64.4,29.93,SW,225,4.0,5.0,77,0.00,,---,0.00,VWS V14.01,2013-10-05 17:35:00,
2013-10-05 12:40:00,71.0,65.2,29.93,SW,225,3.0,4.0,82,0.00,,---,0.00,VWS V14.01,2013-10-05 17:40:00,
2013-10-05 12:45:00,70.0,64.9,29.93,WSW,247,6.0,8.0,84,0.00,,---,0.00,VWS V14.01,2013-10-05 17:45:00,
2013-10-05 12:50:00,70.0,65.6,29.95,WSW,247,4.0,5.0,86,0.00,,---,0.01,VWS V14.01,2013-10-05 17:50:00,
2013-10-05 12:55:00,69.0,64.6,29.95,SW,225,1.0,4.0,86,0.01,,---,0.02,VWS V14.01,2013-10-05 17:55:00,
2013-10-05 13:00:00,68.0,64.3,29.94,SW,225,0.0,3.0,88,0.03,,---,0.03,VWS V14.01,2013-10-05 18:00:00,
2013-10-05 13:05:00,68.0,65.3,29.94,SW,225,1.0,4.0,91,0.04,,---,0.04,VWS V14.01,2013-10-05 18:05:00,
2013-10-05 13:10:00,68.0,65.3,29.93,SW,225,0.0,0.0,91,0.04,,---,0.04,VWS V14.01,2013-10-05 18:10:00,
2013-10-05 13:15:00,68.0,65.0,29.93,SW,225,0.0,0.0,90,0.04,,---,0.04,VWS V14.01,2013-10-05 18:15:00,
2013-10-05 13:20:00,68.0,65.6,29.92,South,180,0.0,3.0,92,0.04,,---,0.04,VWS V14.01,2013-10-05 18:20:00,
2013-10-05 13:25:00,68.0,65.3,29.92,SW,225,0.0,3.0,91,0.04,,---,0.04,VWS V14.01,2013-10-05 18:25:00,
2013-10-05 13:30:00,69.0,66.9,29.91,SW,225,0.0,3.0,93,0.04,,---,0.04,VWS V14.01,2013-10-05 18:30:00,
2013-10-05 13:35:00,69.0,66.9,29.91,SW,225,2.0,4.0,93,0.04,,---,0.04,VWS V14.01,2013-10-05 18:35:00,
2013-10-05 13:40:00,69.0,66.6,29.89,South,180,0.0,0.0,92,0.04,,---,0.04,VWS V14.01,2013-10-05 18:40:00,
2013-10-05 13:45:00,69.0,66.3,29.89,SW,225,3.0,5.0,91,0.04,,---,0.04,VWS V14.01,2013-10-05 18:45:00,
2013-10-05 13:50:00,69.0,66.3,29.87,SW,225,3.0,5.0,91,0.04,,---,0.04,VWS V14.01,2013-10-05 18:50:00,
2013-10-05 13:55:00,69.0,66.3,29.87,SSW,202,0.0,2.0,91,0.03,,---,0.04,VWS V14.01,2013-10-05 18:55:00,
2013-10-05 14:00:00,69.0,65.9,29.87,SW,225,1.0,2.0,90,0.01,,---,0.04,VWS V14.01,2013-10-05 19:00:00,
2013-10-05 14:05:00,70.0,67.3,29.87,West,270,0.0,0.0,91,0.00,,---,0.04,VWS V14.01,2013-10-05 19:05:00,
2013-10-05 14:10:00,70.0,67.3,29.85,West,270,0.0,0.0,91,0.00,,---,0.04,VWS V14.01,2013-10-05 19:10:00,
2013-10-05 14:15:00,70.0,67.3,29.85,SW,225,1.0,4.0,91,0.00,,---,0.04,VWS V14.01,2013-10-05 19:15:00,
2013-10-05 14:20:00,69.0,65.9,29.87,West,270,2.0,3.0,90,0.00,,---,0.04,VWS V14.01,2013-10-05 19:20:00,
2013-10-05 14:25:00,69.0,65.9,29.87,SW,225,0.0,2.0,90,0.00,,---,0.04,VWS V14.01,2013-10-05 19:25:00,
2013-10-05 14:30:00,69.0,65.9,29.85,North,360,0.0,2.0,90,0.00,,---,0.04,VWS V14.01,2013-10-05 19:30:00,
2013-10-05 14:35:00,70.0,67.6,29.85,SSW,202,3.0,3.0,92,0.00,,---,0.04,VWS V14.01,2013-10-05 19:35:00,
2013-10-05 14:40:00,70.0,67.3,29.88,East,90,3.0,4.0,91,0.00,,---,0.04,VWS V14.01,2013-10-05 19:40:00,
2013-10-05 14:45:00,70.0,66.9,29.88,WSW,247,3.0,5.0,90,0.00,,---,0.04,VWS V14.01,2013-10-05 19:45:00,
2013-10-05 14:50:00,70.0,66.9,29.89,South,180,2.0,5.0,90,0.00,,---,0.04,VWS V14.01,2013-10-05 19:50:00,
2013-10-05 14:55:00,70.0,66.9,29.89,SW,225,1.0,5.0,90,0.00,,---,0.04,VWS V14.01,2013-10-05 19:55:00,
2013-10-05 15:00:00,70.0,66.9,29.89,SW,225,2.0,3.0,90,0.00,,---,0.04,VWS V14.01,2013-10-05 20:00:00,
2013-10-05 15:05:00,70.0,67.3,29.89,South,180,4.0,5.0,91,0.00,,---,0.04,VWS V14.01,2013-10-05 20:05:00,
2013-10-05 15:10:00,70.0,66.9,29.90,SSW,202,0.0,3.0,90,0.00,,---,0.04,VWS V14.01,2013-10-05 20:10:00,
2013-10-05 15:15:00,70.0,66.9,29.90,SW,225,1.0,2.0,90,0.00,,---,0.04,VWS V14.01,2013-10-05 20:15:00,
2013-10-05 15:20:00,70.0,66.9,29.90,West,270,0.0,1.0,90,0.00,,---,0.04,VWS V14.01,2013-10-05 20:20:00,
2013-10-05 15:25:00,70.0,67.3,29.90,NW,315,2.0,8.0,91,0.00,,---,0.04,VWS V14.01,2013-10-05 20:25:00,
2013-10-05 15:30:00,69.0,65.9,29.90,West,270,1.0,1.0,90,0.00,,---,0.04,VWS V14.01,2013-10-05 20:30:00,
2013-10-05 15:35:00,69.0,66.3,29.90,SSW,202,0.0,3.0,91,0.00,,---,0.04,VWS V14.01,2013-10-05 20:35:00,
2013-10-05 15:40:00,70.0,67.6,29.88,SE,135,0.0,1.0,92,0.00,,---,0.04,VWS V14.01,2013-10-05 20:40:00,
2013-10-05 15:45:00,70.0,67.6,29.88,South,180,1.0,2.0,92,0.00,,---,0.04,VWS V14.01,2013-10-05 20:45:00,
2013-10-05 15:50:00,70.0,67.6,29.87,South,180,0.0,2.0,92,0.00,,---,0.04,VWS V14.01,2013-10-05 20:50:00,
2013-10-05 15:55:00,70.0,67.3,29.87,SE,135,0.0,3.0,91,0.00,,---,0.04,VWS V14.01,2013-10-05 20:55:00,
2013-10-05 16:00:00,70.0,67.3,29.87,SE,135,0.0,0.0,91,0.00,,---,0.04,VWS V14.01,2013-10-05 21:00:00,
2013-10-05 16:05:00,70.0,67.3,29.87,South,180,1.0,3.0,91,0.00,,---,0.04,VWS V14.01,2013-10-05 21:05:00,
2013-10-05 16:10:00,70.0,66.9,29.88,SW,225,2.0,5.0,90,0.00,,---,0.04,VWS V14.01,2013-10-05 21:10:00,
2013-10-05 16:15:00,70.0,66.9,29.88,WSW,247,3.0,4.0,90,0.00,,---,0.04,VWS V14.01,2013-10-05 21:15:00,
2013-10-05 16:20:00,70.0,66.9,29.89,SW,225,3.0,4.0,90,0.00,,---,0.04,VWS V14.01,2013-10-05 21:20:00,
2013-10-05 16:25:00,70.0,67.3,29.89,SW,225,2.0,5.0,91,0.00,,---,0.04,VWS V14.01,2013-10-05 21:25:00,
2013-10-05 16:30:00,70.0,66.9,29.89,SW,225,0.0,3.0,90,0.00,,---,0.04,VWS V14.01,2013-10-05 21:30:00,
2013-10-05 16:35:00,70.0,67.3,29.89,SW,225,2.0,3.0,91,0.00,,---,0.04,VWS V14.01,2013-10-05 21:35:00,
2013-10-05 16:40:00,70.0,67.3,29.89,SW,225,1.0,3.0,91,0.00,,---,0.04,VWS V14.01,2013-10-05 21:40:00,
2013-10-05 16:45:00,69.0,66.3,29.89,West,270,2.0,3.0,91,0.01,,---,0.05,VWS V14.01,2013-10-05 21:45:00,
2013-10-05 16:50:00,68.0,65.3,29.89,SW,225,2.0,6.0,91,0.01,,---,0.05,VWS V14.01,2013-10-05 21:50:00,
2013-10-05 16:55:00,67.0,64.9,29.89,NW,315,0.0,1.0,93,0.01,,---,0.05,VWS V14.01,2013-10-05 21:55:00,
2013-10-05 17:00:00,67.0,65.5,29.89,NW,315,1.0,2.0,95,0.01,,---,0.05,VWS V14.01,2013-10-05 22:00:00,
2013-10-05 17:05:00,67.0,65.5,29.89,West,270,4.0,6.0,95,0.01,,---,0.05,VWS V14.01,2013-10-05 22:05:00,
2013-10-05 17:10:00,66.0,63.9,29.91,West,270,7.0,9.0,93,0.01,,---,0.05,VWS V14.01,2013-10-05 22:10:00,
2013-10-05 17:15:00,64.0,62.5,29.91,West,270,8.0,9.0,95,0.01,,---,0.05,VWS V14.01,2013-10-05 22:15:00,
2013-10-05 17:20:00,63.0,61.5,29.91,West,270,4.0,8.0,95,0.01,,---,0.05,VWS V14.01,2013-10-05 22:20:00,
2013-10-05 17:25:00,63.0,61.5,29.91,WSW,247,4.0,7.0,95,0.01,,---,0.05,VWS V14.01,2013-10-05 22:25:00,
2013-10-05 17:30:00,63.0,61.8,29.93,West,270,6.0,10.0,96,0.01,,---,0.05,VWS V14.01,2013-10-05 22:30:00,
2013-10-05 17:35:00,62.0,61.1,29.93,West,270,3.0,7.0,97,0.01,,---,0.05,VWS V14.01,2013-10-05 22:35:00,
2013-10-05 17:40:00,62.0,61.1,29.93,NW,315,7.0,7.0,97,0.02,,---,0.06,VWS V14.01,2013-10-05 22:40:00,
2013-10-05 17:45:00,62.0,61.1,29.93,West,270,7.0,10.0,97,0.02,,---,0.07,VWS V14.01,2013-10-05 22:45:00,
2013-10-05 17:50:00,61.0,60.4,29.94,SW,225,5.0,7.0,98,0.02,,---,0.07,VWS V14.01,2013-10-05 22:50:00,
2013-10-05 17:55:00,61.0,60.4,29.94,WSW,247,3.0,6.0,98,0.02,,---,0.07,VWS V14.01,2013-10-05 22:55:00,
2013-10-05 18:00:00,61.0,60.4,29.93,West,270,3.0,5.0,98,0.02,,---,0.07,VWS V14.01,2013-10-05 23:00:00,
2013-10-05 18:05:00,61.0,60.7,29.93,West,270,2.0,3.0,99,0.02,,---,0.07,VWS V14.01,2013-10-05 23:05:00,
2013-10-05 18:10:00,61.0,60.7,29.94,WSW,247,3.0,7.0,99,0.02,,---,0.07,VWS V14.01,2013-10-05 23:10:00,
2013-10-05 18:15:00,61.0,60.7,29.94,SW,225,1.0,2.0,99,0.02,,---,0.07,VWS V14.01,2013-10-05 23:15:00,
2013-10-05 18:20:00,61.0,60.7,29.94,SW,225,6.0,6.0,99,0.02,,---,0.07,VWS V14.01,2013-10-05 23:20:00,
2013-10-05 18:25:00,61.0,60.7,29.94,WSW,247,4.0,5.0,99,0.02,,---,0.07,VWS V14.01,2013-10-05 23:25:00,
2013-10-05 18:30:00,61.0,60.7,29.95,SW,225,5.0,6.0,99,0.02,,---,0.07,VWS V14.01,2013-10-05 23:30:00,
2013-10-05 18:35:00,61.0,60.2,29.95,WSW,247,4.0,4.0,97,0.03,,---,0.08,VWS V14.01,2013-10-05 23:35:00,
2013-10-05 18:40:00,60.0,59.4,29.95,SW,225,0.0,1.0,98,0.02,,---,0.08,VWS V14.01,2013-10-05 23:40:00,
2013-10-05 18:45:00,60.0,59.7,29.95,WSW,247,2.0,3.0,99,0.02,,---,0.09,VWS V14.01,2013-10-05 23:45:00,
2013-10-05 18:50:00,60.0,59.4,29.96,SW,225,4.0,7.0,98,0.02,,---,0.10,VWS V14.01,2013-10-05 23:50:00,
2013-10-05 18:55:00,59.0,58.7,29.96,West,270,5.0,5.0,99,0.03,,---,0.10,VWS V14.01,2013-10-05 23:55:00,
2013-10-05 19:00:00,59.0,58.4,29.97,SW,225,5.0,11.0,98,0.04,,---,0.11,VWS V14.01,2013-10-06 00:00:00,
2013-10-05 19:05:00,59.0,58.4,29.97,SW,225,6.0,8.0,98,0.05,,---,0.12,VWS V14.01,2013-10-06 00:05:00,
2013-10-05 19:10:00,58.0,57.4,29.98,WSW,247,5.0,7.0,98,0.06,,---,0.13,VWS V14.01,2013-10-06 00:10:00,
2013-10-05 19:15:00,58.0,57.4,29.98,WSW,247,2.0,6.0,98,0.07,,---,0.14,VWS V14.01,2013-10-06 00:15:00,
2013-10-05 19:20:00,58.0,57.4,29.97,SW,225,3.0,5.0,98,0.09,,---,0.16,VWS V14.01,2013-10-06 00:20:00,
2013-10-05 19:25:00,58.0,57.4,29.97,SW,225,4.0,5.0,98,0.10,,---,0.17,VWS V14.01,2013-10-06 00:25:00,
2013-10-05 19:30:00,58.0,57.7,29.99,West,270,4.0,8.0,99,0.11,,---,0.18,VWS V14.01,2013-10-06 00:30:00,
2013-10-05 19:35:00,57.0,56.4,29.99,WSW,247,5.0,7.0,98,0.12,,---,0.20,VWS V14.01,2013-10-06 00:35:00,
2013-10-05 19:40:00,57.0,56.4,29.99,SW,225,4.0,5.0,98,0.14,,---,0.23,VWS V14.01,2013-10-06 00:40:00,
2013-10-05 19:46:00,57.0,56.7,29.99,SSE,157,0.0,1.0,99,0.16,,---,0.25,VWS V14.01,2013-10-06 00:46:00,
2013-10-05 19:51:00,57.0,56.7,29.97,WSW,247,1.0,3.0,99,0.17,,---,0.26,VWS V14.01,2013-10-06 00:51:00,
2013-10-05 19:56:00,56.0,55.7,29.97,SW,225,0.0,2.0,99,0.17,,---,0.27,VWS V14.01,2013-10-06 00:56:00,
2013-10-05 20:01:00,56.0,55.7,29.96,SW,225,1.0,3.0,99,0.16,,---,0.27,VWS V14.01,2013-10-06 01:01:00,
2013-10-05 20:06:00,56.0,55.7,29.96,WSW,247,5.0,5.0,99,0.16,,---,0.28,VWS V14.01,2013-10-06 01:06:00,
2013-10-05 20:11:00,56.0,55.7,29.99,NNW,337,0.0,6.0,99,0.15,,---,0.28,VWS V14.01,2013-10-06 01:11:00,
2013-10-05 20:16:00,56.0,55.7,29.99,WNW,292,4.0,5.0,99,0.15,,---,0.29,VWS V14.01,2013-10-06 01:16:00,
2013-10-05 20:21:00,56.0,55.7,29.98,SW,225,6.0,10.0,99,0.14,,---,0.30,VWS V14.01,2013-10-06 01:21:00,
2013-10-05 20:26:00,56.0,55.7,29.98,WSW,247,5.0,6.0,99,0.13,,---,0.30,VWS V14.01,2013-10-06 01:26:00,
2013-10-05 20:31:00,56.0,55.7,29.97,WSW,247,3.0,5.0,99,0.13,,---,0.31,VWS V14.01,2013-10-06 01:31:00,
2013-10-05 20:36:00,56.0,55.7,29.97,SW,225,4.0,6.0,99,0.11,,---,0.31,VWS V14.01,2013-10-06 01:36:00,
2013-10-05 20:41:00,56.0,55.7,29.97,WSW,247,3.0,5.0,99,0.09,,---,0.31,VWS V14.01,2013-10-06 01:41:00,
2013-10-05 20:46:00,56.0,55.7,29.97,WSW,247,3.0,4.0,99,0.07,,---,0.31,VWS V14.01,2013-10-06 01:46:00,
2013-10-05 20:51:00,56.0,55.7,29.97,WSW,247,3.0,5.0,99,0.05,,---,0.31,VWS V14.01,2013-10-06 01:51:00,
2013-10-05 20:57:00,56.0,55.7,29.97,WSW,247,2.0,5.0,99,0.05,,---,0.31,VWS V14.01,2013-10-06 01:57:00,
2013-10-05 21:01:00,56.0,55.7,29.97,WSW,247,1.0,5.0,99,0.04,,---,0.31,VWS V14.01,2013-10-06 02:01:00,
2013-10-05 21:06:00,55.0,54.7,29.97,WSW,247,3.0,5.0,99,0.04,,---,0.31,VWS V14.01,2013-10-06 02:06:00,
2013-10-05 21:11:00,55.0,54.7,29.98,SW,225,4.0,4.0,99,0.03,,---,0.31,VWS V14.01,2013-10-06 02:11:00,
2013-10-05 21:16:00,55.0,54.7,29.98,WSW,247,1.0,6.0,99,0.02,,---,0.31,VWS V14.01,2013-10-06 02:16:00,
2013-10-05 21:21:00,55.0,54.7,29.98,SW,225,4.0,4.0,99,0.01,,---,0.31,VWS V14.01,2013-10-06 02:21:00,
2013-10-05 21:27:00,55.0,54.7,29.98,WSW,247,5.0,5.0,99,0.01,,---,0.31,VWS V14.01,2013-10-06 02:27:00,
2013-10-05 21:32:00,55.0,54.5,29.98,WSW,247,4.0,5.0,98,0.00,,---,0.31,VWS V14.01,2013-10-06 02:32:00,
2013-10-05 21:37:00,55.0,54.5,29.98,SW,225,8.0,8.0,98,0.00,,---,0.31,VWS V14.01,2013-10-06 02:37:00,
2013-10-05 21:42:00,55.0,54.7,29.98,SW,225,2.0,4.0,99,0.00,,---,0.31,VWS V14.01,2013-10-06 02:42:00,
2013-10-05 21:47:00,55.0,54.7,29.98,SW,225,0.0,3.0,99,0.00,,---,0.31,VWS V14.01,2013-10-06 02:47:00,
2013-10-05 21:52:00,55.0,54.7,29.99,SW,225,3.0,4.0,99,0.00,,---,0.31,VWS V14.01,2013-10-06 02:52:00,
2013-10-05 21:57:00,55.0,54.5,29.99,WSW,247,3.0,4.0,98,0.00,,---,0.31,VWS V14.01,2013-10-06 02:57:00,
2013-10-05 22:02:00,55.0,54.5,29.99,SW,225,5.0,6.0,98,0.00,,---,0.31,VWS V14.01,2013-10-06 03:02:00,
2013-10-05 22:07:00,55.0,54.5,29.99,South,180,5.0,6.0,98,0.00,,---,0.31,VWS V14.01,2013-10-06 03:07:00,
2013-10-05 22:12:00,55.0,54.5,29.99,SW,225,6.0,7.0,98,0.00,,---,0.31,VWS V14.01,2013-10-06 03:12:00,
2013-10-05 22:17:00,54.0,52.9,29.99,WSW,247,5.0,8.0,96,0.00,,---,0.31,VWS V14.01,2013-10-06 03:17:00,
2013-10-05 22:22:00,54.0,52.9,30.00,SW,225,4.0,9.0,96,0.00,,---,0.31,VWS V14.01,2013-10-06 03:22:00,
2013-10-05 22:27:00,54.0,52.9,30.00,SW,225,3.0,5.0,96,0.00,,---,0.31,VWS V14.01,2013-10-06 03:27:00,
2013-10-05 22:32:00,54.0,52.9,29.99,SW,225,6.0,6.0,96,0.00,,---,0.31,VWS V14.01,2013-10-06 03:32:00,
2013-10-05 22:37:00,54.0,52.9,29.99,WSW,247,3.0,9.0,96,0.00,,---,0.31,VWS V14.01,2013-10-06 03:37:00,
2013-10-05 22:42:00,54.0,52.9,30.00,SW,225,3.0,4.0,96,0.00,,---,0.31,VWS V14.01,2013-10-06 03:42:00,
2013-10-05 22:47:00,54.0,52.9,30.00,SW,225,6.0,6.0,96,0.00,,---,0.31,VWS V14.01,2013-10-06 03:47:00,
2013-10-05 22:52:00,54.0,52.9,29.99,SW,225,3.0,5.0,96,0.00,,---,0.31,VWS V14.01,2013-10-06 03:52:00,
2013-10-05 22:57:00,54.0,52.9,29.99,SW,225,5.0,6.0,96,0.00,,---,0.31,VWS V14.01,2013-10-06 03:57:00,
2013-10-05 23:01:00,54.0,52.9,29.99,WSW,247,4.0,5.0,96,0.00,,---,0.31,VWS V14.01,2013-10-06 04:01:00,
2013-10-05 23:02:00,54.0,52.9,29.99,SW,225,9.0,10.0,96,0.00,,---,0.31,VWS V14.01,2013-10-06 04:02:00,
2013-10-05 23:03:00,54.0,52.9,29.99,SW,225,4.0,9.0,96,0.00,,---,0.31,VWS V14.01,2013-10-06 04:03:00,
2013-10-05 23:05:00,54.0,52.9,29.99,WSW,247,4.0,7.0,96,0.00,,---,0.31,VWS V14.01,2013-10-06 04:05:00,
2013-10-05 23:08:00,54.0,52.9,29.99,SW,225,4.0,5.0,96,0.00,,---,0.31,VWS V14.01,2013-10-06 04:08:00,
2013-10-05 23:11:00,54.0,52.9,29.99,West,270,4.0,5.0,96,0.00,,---,0.31,VWS V14.01,2013-10-06 04:11:00,
2013-10-05 23:16:00,54.0,52.9,29.99,West,270,2.0,8.0,96,0.00,,---,0.31,VWS V14.01,2013-10-06 04:16:00,
2013-10-05 23:21:00,54.0,52.9,29.98,WSW,247,7.0,7.0,96,0.00,,---,0.31,VWS V14.01,2013-10-06 04:21:00,
2013-10-05 23:26:00,54.0,52.9,29.98,West,270,1.0,5.0,96,0.00,,---,0.31,VWS V14.01,2013-10-06 04:26:00,
2013-10-05 23:31:00,54.0,52.9,29.98,WSW,247,3.0,5.0,96,0.00,,---,0.31,VWS V14.01,2013-10-06 04:31:00,
2013-10-05 23:36:00,54.0,52.9,29.98,WSW,247,5.0,7.0,96,0.00,,---,0.31,VWS V14.01,2013-10-06 04:36:00,
2013-10-05 23:41:00,54.0,52.9,29.98,WSW,247,3.0,5.0,96,0.00,,---,0.31,VWS V14.01,2013-10-06 04:41:00,
2013-10-05 23:46:00,54.0,52.9,29.98,WSW,247,5.0,6.0,96,0.00,,---,0.31,VWS V14.01,2013-10-06 04:46:00,
2013-10-05 23:51:00,54.0,52.9,29.98,SW,225,5.0,8.0,96,0.00,,---,0.31,VWS V14.01,2013-10-06 04:51:00,
2013-10-05 23:56:00,54.0,52.9,29.98,WSW,247,4.0,7.0,96,0.00,,---,0.31,VWS V14.01,2013-10-06 04:56:00,